GW0890 Weather Reports


time (UTC)temp
C
wind
direction
speed
KPH
gust
KPH
rain 1hr
cm
rain 24hr
cm
rain mn
cm
humidity
%
barometer
mb
20260902123043 21 217 0.0 0.0 0.00 0.00 0.00 99 1017.1
20260902121543 21 217 0.0 0.0 0.00 0.00 0.00 99 1017.2
20260902120041 21 217 0.0 0.0 0.00 0.00 0.00 99 1017.1
20260902114538 20 217 0.0 0.0 0.00 0.00 0.00 99 1016.9
20260902113036 20 217 0.0 0.0 0.00 0.00 0.00 99 1016.8
20260902111533 20 217 0.0 0.0 0.00 0.00 0.00 98 1016.7
20260902110044 20 217 0.0 0.0 0.00 0.00 0.00 99 1016.5
20260902104550 20 217 0.0 0.0 0.00 0.00 0.00 98 1016.5
20260902103046 20 217 0.0 0.0 0.00 0.00 0.00 98 1016.6
20260902101527 20 217 0.0 0.0 0.00 0.00 0.00 99 1016.6
20260902100025 20 217 0.0 0.0 0.00 0.00 0.00 98 1016.6
20260902094522 21 217 0.0 0.0 0.00 0.00 0.00 98 1016.4
20260902093021 21 217 0.0 0.0 0.00 0.00 0.00 98 1016.4
20260902091517 21 217 0.0 0.0 0.00 0.00 0.00 98 1016.4
20260902090024 21 217 0.0 0.0 0.00 0.00 0.00 98 1016.4
20260902084514 21 217 0.0 0.0 0.00 0.03 0.00 98 1016.2
20260902083011 21 217 0.0 0.0 0.00 0.03 0.00 98 1016.0
20260902081509 21 217 0.0 0.0 0.00 0.03 0.00 98 1015.9
20260902080010 21 217 0.0 0.0 0.00 0.03 0.00 98 1015.8
20260902074506 21 217 0.0 0.0 0.00 0.03 0.00 98 1015.9
20260902073006 21 217 0.0 0.0 0.00 0.03 0.00 98 1016.0
20260902071504 21 216 0.0 0.0 0.00 0.03 0.00 98 1015.8
20260902070007 21 216 0.0 0.0 0.00 0.03 0.00 98 1015.7
20260902064605 22 216 0.0 0.0 0.00 0.03 0.00 98 1015.7
20260902063110 22 216 0.0 0.0 0.00 0.03 0.00 98 1015.7
20260902061620 22 216 0.0 0.0 0.00 0.03 0.00 98 1015.9
20260902054554 22 215 0.0 0.0 0.00 0.03 0.00 98 1015.7
20260902053049 22 215 0.0 0.0 0.00 0.03 0.00 97 1015.5
20260902051558 22 215 0.0 0.0 0.00 0.03 0.00 97 1015.5
20260902050040 22 215 0.0 0.0 0.00 0.03 0.00 97 1015.5
20260902044601 22 215 0.0 0.0 0.00 0.03 0.03 97 1015.6
20260902043046 23 215 0.0 0.0 0.00 0.03 0.03 97 1015.5
20260902041543 23 215 0.0 0.0 0.00 0.03 0.03 97 1015.5
20260902040038 23 215 0.0 0.0 0.00 0.03 0.03 97 1015.5
20260902034509 23 215 0.0 0.0 0.00 0.03 0.03 96 1015.5
20260902033008 23 215 0.0 1.6 0.00 0.03 0.03 96 1015.5
20260902031552 23 215 0.0 1.6 0.00 0.03 0.03 96 1015.4
20260902030036 23 214 0.0 3.2 0.00 0.03 0.03 96 1015.5
20260902024508 24 213 0.0 0.0 0.00 0.03 0.03 95 1015.5
20260902023014 24 213 0.0 0.0 0.00 0.03 0.03 95 1015.6
20260902021535 24 213 0.0 0.0 0.00 0.03 0.03 95 1015.4
20260902020035 24 213 0.0 1.6 0.00 0.03 0.03 94 1015.4
20260902014506 25 213 0.0 1.6 0.00 0.03 0.03 94 1015.4
20260902013005 25 213 0.0 1.6 0.00 0.03 0.03 93 1015.2
20260902011501 25 213 0.0 3.2 0.00 0.03 0.03 92 1015.2
20260902010000 25 213 0.0 6.4 0.00 0.03 0.03 92 1015.1
20260902004600 26 213 0.0 3.2 0.00 0.03 0.03 91 1014.7
20260902003100 26 213 0.0 6.4 0.00 0.03 0.03 90 1014.7
20260902001602 26 213 0.0 6.4 0.00 0.03 0.03 89 1014.7
20260902000057 27 211 3.2 8.0 0.00 0.03 0.03 87 1014.6
20260901234604 27 209 4.8 8.0 0.00 0.03 0.03 85 1014.6
20260901233055 30 159 4.8 8.0 0.00 0.03 0.03 78 1014.5
20260901231558 32 28 1.6 6.4 0.00 0.03 0.03 70 1014.4
20260901230105 32 27 1.6 6.4 0.00 0.03 0.03 66 1014.5
20260901224551 32 26 6.4 11.3 0.00 0.03 0.03 64 1014.5
20260901223050 32 9 0.0 8.0 0.00 0.03 0.03 66 1014.4
20260901221604 32 313 4.8 11.3 0.00 0.03 0.03 64 1014.6
20260901220017 33 315 6.4 11.3 0.00 0.03 0.03 60 1014.7
20260901214516 33 309 1.6 8.0 0.00 0.03 0.03 63 1014.9
20260901213024 33 312 0.0 9.7 0.00 0.03 0.03 61 1015.0
20260901211514 33 304 6.4 11.3 0.00 0.03 0.03 63 1015.2
20260901210014 33 302 3.2 11.3 0.00 0.03 0.03 61 1015.2
20260901204515 33 309 3.2 8.0 0.00 0.03 0.03 64 1015.3
20260901203006 33 315 1.6 8.0 0.00 0.03 0.03 64 1015.4
20260901201504 33 315 1.6 9.7 0.00 0.03 0.03 61 1015.5
20260901200002 33 315 3.2 12.9 0.00 0.03 0.03 63 1015.5
20260901194501 33 318 8.0 14.5 0.00 0.03 0.03 64 1015.6
20260901193056 33 309 6.4 12.9 0.00 0.03 0.03 65 1015.7
20260901191553 33 311 8.0 12.9 0.00 0.03 0.03 60 1015.9
20260901190051 34 287 4.8 9.7 0.00 0.03 0.03 60 1015.9
20260901184554 34 35 8.0 14.5 0.00 0.03 0.03 54 1016.0
20260901183024 34 148 3.2 9.7 0.00 0.03 0.03 55 1016.1
20260901181515 33 144 3.2 14.5 0.00 0.03 0.03 56 1016.3
20260901180015 33 105 4.8 8.0 0.00 0.03 0.03 58 1016.5
20260901174508 33 157 3.2 9.7 0.00 0.03 0.03 62 1016.7
20260901173006 33 66 6.4 12.9 0.00 0.03 0.03 62 1016.8
20260901171506 32 97 4.8 14.5 0.00 0.03 0.03 63 1017.0
20260901170104 32 65 4.8 14.5 0.00 0.03 0.03 64 1017.1
20260901170000 32 65 8.0 14.5 0.00 0.03 0.03 65 1017.1
20260901164558 32 88 6.4 14.5 0.00 0.03 0.03 66 1017.1
20260901163113 32 57 6.4 12.9 0.00 0.03 0.03 70 1017.0
20260901161603 31 57 8.0 12.9 0.00 0.03 0.03 70 1016.9
20260901160053 31 38 9.7 16.1 0.00 0.03 0.03 70 1017.1
20260901154548 31 32 6.4 17.7 0.00 0.03 0.03 72 1017.1
20260901153043 30 41 6.4 12.9 0.00 0.03 0.03 74 1017.2
20260901151550 30 18 8.0 12.9 0.00 0.03 0.03 75 1017.3
20260901150037 29 94 0.0 8.0 0.00 0.03 0.03 78 1017.2
20260901144532 28 114 1.6 8.0 0.00 0.03 0.03 82 1017.3
20260901143026 27 116 1.6 6.4 0.00 0.03 0.03 84 1017.4
20260901141532 26 55 0.0 11.3 0.00 0.03 0.03 87 1017.4
20260901140017 25 92 0.0 0.0 0.00 0.03 0.03 93 1017.4
20260901134512 25 177 0.0 0.0 0.00 0.03 0.03 96 1017.5
20260901133010 24 211 0.0 0.0 0.00 0.03 0.03 98 1017.6
20260901131506 23 211 0.0 0.0 0.00 0.03 0.03 99 1017.6
20260901130000 23 211 0.0 0.0 0.00 0.03 0.03 99 1017.7
20260901124600 22 211 0.0 0.0 0.00 0.03 0.03 99 1017.7